Location: Newark
(13.9670°N, 101.5170°E)
Time: 16:29:37
(UTC+00:00)

ISS - Visible Passes

Search period start: 16 July 2019 00:00
Search period end: 26 July 2019 00:00
Orbit: 409 x 418 km, 51.6° (Epoch: 17 July)

Date Brightness Start Highest point End Pass type
(mag) Time Alt. Az. Time Alt. Az. Time Alt. Az.
16 Jul -1.8 13:11:46 10° WSW 13:14:47 31° NW 13:17:47 10° NNE visible
17 Jul -3.7 12:22:12 10° SW 12:25:32 80° NW 12:28:51 10° NE visible
17 Jul -2.1 22:15:16 10° NNW 22:18:21 37° NE 22:21:25 10° ESE visible
18 Jul -0.6 21:26:49 10° N 21:29:03 17° NE 21:31:16 10° E visible
19 Jul -0.6 12:21:16 10° W 12:23:37 18° NW 12:25:57 10° N visible
19 Jul -3.4 22:13:15 10° NW 22:16:20 39° SW 22:19:26 10° SSE visible
20 Jul -3.8 21:26:28 53° NNW 21:27:06 77° NE 21:30:23 10° SE visible
